Iridium Next SV134

operational
NORAD ID: 43075 Int'l Des: 2017-083 Owner: IRIDS Country: US Constellation: Iridium NEXT
LEOCIRCULARPOLAR

Iridium Next SV134について

説明を読み込み中...

リアルタイム位置

3D地球を読み込み中...

次回通過

高度履歴

Altitude vs Time

uPlot chart will show altitude changes over time

軌道要素

1 43075U 17083F 26061.58966615 .00000031 00000-0 40272-5 0 9993
2 43075 86.4019 6.6070 0002025 84.9392 275.2035 14.34217739428821
Epoch: Mar 2, 2026 • Age: 31 hours

現在のステータス

高度 786.4 km
速度 7.47 km/s
衛星直下点 59.15°N, 103.67°E
打ち上げ日 Dec 23, 2017
運用期間 8.1 years
タイプ communications

技術仕様

分類 Payload
質量 860.00 kg
乾燥質量 700.00 kg
総質量 860.00 kg
長さ 3.10 m
直径 1.50 m
スパン 9.40 m
形状 Half Hex Prism+2 pan
製造者 OATKGA
バスタイプ EliteBus
フェーズステータス In Orbit
所有者/国 IRIDS/US

大規模コンステレーション

Loading constellations...